Tracking 22283 objects as of 28-Jan-2021
HD Live streaming from Space Station
objects crossing your sky now

USA 236

Track USA 236 now!
USA 236 is classified as:


NORAD ID: 38466
Int'l Code: 2012-033A
Perigee: 35,762.3 km
Apogee: 35,826.2 km
Inclination: 2.7 °
Period: 1,436.1 minutes
Semi major axis: 42165 km
RCS: Unknown
Launch date: June 20, 2012
Source: United States (US)
Launch site: AIR FORCE EASTERN TEST RANGE (AFETR)

NROL-38 (USA 236) is a classified satellite.
aabbcc
Your satellite tracking list
Your tracking list is empty




NASA's NSSDC Master Catalog

Two Line Element Set (TLE):
1 38466U 12033A   20265.39721692 0.00000000  00000-0  00000-0 0    03
2 38466   2.6811 119.7891 0007570 182.9680 177.0407  1.00270000    02
Source of the keplerian elements: McCants